Overview Statistics Trail Chart Weather Telemetry Raw packets
 

This is the latest recevied weather packets stored in our database for station/object KC9DRE. If no packets are shown the sender has not sent any weather packets the latest 10 day(s).

<< 73 74 75 76 77 78 79 >>
Time Temp. Humidity Pressure Rain* Wind** Luminosity Snow
1777400704 24.44° C 63% 1014.9 hPa 0 mm - 1012 W/m² -
1777400403 24.44° C 66% 1014.9 hPa 0 mm - 987 W/m² -
1777400103 24.44° C 64% 1015 hPa 0 mm - 901 W/m² -
1777399800 23.89° C 65% 1015.1 hPa 0 mm - 890 W/m² -
1777399497 23.89° C 68% 1015.3 hPa 0 mm - 884 W/m² -
1777399195 23.33° C 70% 1015.1 hPa 0 mm - 880 W/m² -
1777398892 23.33° C 70% 1015.3 hPa 0 mm - 869 W/m² -
1777398589 23.33° C 74% 1015.4 hPa 0 mm - 875 W/m² -
1777398285 22.78° C 74% 1015.4 hPa 0 mm - 870 W/m² -
1777397983 22.78° C 70% 1015.7 hPa 0 mm - 312 W/m² -
1777397678 23.33° C 73% 1015.7 hPa 0 mm - 1017 W/m² -
1777397374 22.78° C 72% 1015.7 hPa 0 mm - 1083 W/m² -
1777397071 22.22° C 73% 1015.9 hPa 0 mm - 317 W/m² -
1777396768 21.67° C 76% 1016.1 hPa 0 mm - 329 W/m² -
1777396465 21.67° C 73% 1016.1 hPa 0 mm - 327 W/m² -
1777396161 21.11° C 74% 1016.2 hPa 0 mm - 1051 W/m² -
1777395857 21.67° C 71% 1016.4 hPa 0 mm - 250 W/m² -
1777395553 22.22° C 71% 1016.5 hPa 0 mm - 551 W/m² -
1777395249 21.67° C 75% 1016.4 hPa 0 mm - 1051 W/m² -
1777394948 21.67° C 76% 1016.1 hPa 0 mm - 913 W/m² -
1777394643 21.11° C 75% 1016.1 hPa 0 mm - 1045 W/m² -
1777394340 20.56° C 76% 1016.2 hPa 0 mm - 1010 W/m² -
1777394036 20.56° C 77% 1015.9 hPa 0 mm - 809 W/m² -
1777393730 20° C 80% 1016.4 hPa 0 mm - 429 W/m² -
1777393425 19.44° C 81% 1016.3 hPa 0 mm - 547 W/m² -

* Rain latest hour (hover to see other rain measurements)
** Current wind speed in m/s (hover to see current wind gust speed)